Temp
27 27 25 25 27 24 25 26 24 27 27 31 31 31 30 28 29 25 22 23 25 23 22 23 24 24 24 24 24 24 24 23 22 21 21 20 19 18 18 18 19 19 19 19 19 19 19 19 19
28 26 25 23 26 24 24 26 25 25 27 28 30 30 29 27 24 21 21 21 24 23 22 23 24 24 24 24 24 24 24 23 23 22 22 20 19 19 19 19 19 19 20 20 20 20 20 20 20
28 26 24 23 23 25 25 26 25 27 28 28 29 29 28 26 23 22 24 22 22 21 22 23 24 24 24 23 23 24 23 23 22 22 21 20 19 19 20 20 20 20 21 22 22 21 21 21 21
28 24 22 25 28 28 27 27 28 28 29 30 29 29 28 27 25 25 23 22 20 21 22 23 23 24 24 23 23 23 23 23 23 22 21 20 20 20 20 21 21 21 22 22 22 22 22 21 21
27 21 24 26 27 29 28 29 28 27 29 30 30 28 27 25 26 24 23 22 20 22 22 23 23 23 23 23 23 23 23 23 23 22 21 21 21 21 21 22 22 22 22 22 22 22 22 22 22
24 22 24 25 27 28 26 25 25 27 28 29 28 28 25 22 23 21 23 22 20 21 22 23 23 23 23 23 23 23 23 23 23 23 22 22 21 21 22 22 22 22 22 22 22 22 23 22 22
25 23 25 27 27 27 27 26 26 26 27 29 28 26 24 23 22 24 24 23 22 22 22 23 22 22 23 23 23 23 23 23 23 23 22 22 22 22 22 22 22 22 22 22 23 23 23 23 23
22 23 27 27 27 27 27 27 25 26 29 26 28 26 23 24 23 22 23 23 22 21 22 23 23 22 22 22 23 23 23 23 23 23 22 22 22 22 22 22 22 23 23 23 23 23 23 23 23
24 24 24 28 29 29 26 26 27 27 27 27 28 28 28 25 23 21 21 20 20 20 20 22 22 23 23 23 23 23 23 23 23 22 22 22 22 22 22 22 23 23 23 23 23 23 23 23 23
24 23 26 27 29 30 26 26 27 27 27 27 28 28 26 25 22 21 20 19 19 19 20 20 22 23 23 23 23 23 23 23 22 23 22 22 22 22 22 22 22 22 22 22 23 23 23 23 24
26 25 26 28 28 29 27 27 27 26 27 26 27 27 25 25 23 22 22 22 23 22 20 21 23 23 23 23 24 24 23 23 23 23 22 22 22 22 22 22 22 22 22 22 23 23 23 24 24
28 27 28 29 30 30 28 28 27 26 28 28 28 28 25 25 24 24 23 22 22 22 22 23 24 23 23 23 24 25 24 23 23 23 23 22 23 23 23 22 23 23 23 23 23 23 24 23 24
26 27 28 28 27 28 29 27 27 26 29 29 28 29 27 25 25 25 24 23 22 22 23 23 23 24 24 23 24 25 25 25 25 24 24 24 24 23 23 23 23 23 24 23 24 23 24 24 24
27 28 27 27 28 27 28 29 28 28 29 29 28 27 27 26 26 25 24 23 23 23 24 23 23 24 25 24 24 25 25 25 25 25 24 24 24 23 23 23 23 24 24 24 24 23 23 23 23
28 28 26 29 30 29 29 30 28 31 28 28 28 27 27 26 27 26 25 25 24 24 25 24 24 24 26 25 24 24 25 25 25 25 25 25 24 24 23 23 22 23 23 23 23 23 23 23 23
27 26 27 27 29 31 30 28 29 29 28 28 27 26 24 24 26 28 28 26 25 25 25 25 25 24 25 24 24 24 24 25 25 25 25 24 24 24 23 23 22 21 22 22 22 22 22 22 22
21 25 26 27 28 30 30 28 29 28 26 26 25 24 23 22 22 23 26 26 26 26 26 25 25 25 25 24 24 24 23 23 23 23 24 24 24 23 22 21 21 22 22 22 22 22 21 20 20
24 26 26 26 28 29 28 27 26 28 26 25 23 23 23 22 21 21 23 26 27 26 26 26 26 26 25 25 24 23 22 22 23 23 23 23 23 22 22 21 21 21 20 20 20 21 20 19 19
25 25 24 25 27 29 26 26 28 26 25 23 23 23 22 21 20 21 22 23 24 24 25 25 25 25 25 24 23 22 21 20 21 21 21 21 21 21 19 20 19 19 19 19 18 18 18 18 18
24 24 24 25 27 26 26 26 26 25 26 25 24 23 21 19 19 20 20 22 23 23 24 25 25 25 25 25 23 24 21 19 19 19 19 19 19 19 19 19 19 18 17 18 17 17 17 17 17
24 24 24 25 27 26 27 26 27 27 26 26 25 24 22 21 20 19 19 20 21 22 23 23 24 24 24 24 23 21 19 18 18 18 18 19 19 18 18 18 17 17 17 17 16 16 16 16 17
23 24 26 26 25 24 27 24 25 27 25 24 23 21 22 20 20 19 18 18 19 20 22 22 23 23 23 23 22 21 19 17 16 17 17 17 17 18 17 17 17 17 16 16 16 16 16 16 15
25 27 25 25 24 25 26 24 24 26 27 23 23 20 21 19 19 18 18 18 19 19 20 20 21 22 22 22 21 20 18 17 16 16 17 17 17 17 17 17 17 16 16 16 16 16 15 15 15
27 26 25 22 21 22 23 23 23 24 27 25 24 24 20 18 18 18 17 17 17 18 19 19 20 19 20 20 20 19 18 17 16 16 16 16 16 16 16 16 16 16 15 15 15 15 15 14 15
26 23 21 22 21 22 24 22 24 26 25 27 23 23 21 19 18 18 18 17 16 16 17 18 19 18 19 19 19 18 18 17 17 17 17 16 16 16 16 16 15 15 15 14 14 14 14 14 14
22 22 20 22 21 24 23 22 26 26 27 25 24 25 22 19 19 18 17 16 15 16 17 18 18 18 18 19 18 17 17 18 17 17 16 16 16 15 15 15 15 15 14 14 14 14 14 13 13
26 22 23 22 23 20 22 23 26 27 25 24 22 21 21 20 19 18 17 16 15 16 17 17 17 17 18 18 18 18 17 17 16 16 16 15 15 15 15 15 15 14 14 13 13 13 13 13 12
25 25 25 19 22 21 21 22 23 25 25 25 25 21 20 20 19 17 17 16 16 16 17 17 17 18 18 18 18 17 17 17 16 16 15 15 15 15 15 14 14 13 13 12 12 12 12 12 12
23 23 23 22 19 23 23 23 21 23 23 23 21 21 20 19 18 18 17 16 16 16 16 17 18 17 17 17 17 17 16 16 16 15 15 15 15 14 14 14 13 12 12 12 11 11 11 11 10
20 16 14 16 18 18 18 20 22 21 21 20 20 19 18 19 18 17 16 16 15 16 16 16 16 16 17 17 17 16 16 15 16 15 15 15 15 14 13 13 12 12 11 11 11 11 10 10 9
Height
771 770 770 774 797 805 819 808 799 794 784 764 762 769 776 777 783 807 778 781 784 788 793 797 800 802 804 805 805 806 807 807 808 809 811 812 815 816 817 817 818 819 820 822 823 824 825 825 825
768 768 770 782 807 829 826 797 798 788 772 763 763 769 774 785 778 781 782 783 787 791 795 799 802 804 805 806 807 808 808 809 810 811 813 814 816 818 819 820 821 821 823 824 824 825 826 827 828
766 767 776 796 815 826 821 799 796 775 762 761 766 767 771 779 778 780 781 785 789 793 797 800 802 804 805 807 809 810 810 811 813 814 815 816 818 820 821 822 823 824 825 826 826 827 827 828 828
766 768 779 803 805 795 792 785 779 769 762 754 753 765 768 770 770 777 781 785 790 794 799 802 803 805 807 808 809 812 813 814 814 815 817 819 821 822 823 824 825 826 827 828 828 828 828 828 828
767 778 802 807 799 785 778 768 772 778 765 758 755 777 777 775 774 777 780 785 789 794 799 802 805 806 808 809 811 812 813 815 816 817 819 820 822 823 824 825 826 827 828 828 828 829 829 829 829
781 788 813 819 802 784 782 777 778 776 764 761 764 770 782 779 774 781 785 789 794 796 800 803 806 808 809 809 811 812 813 815 817 818 820 822 823 824 824 825 826 827 829 829 829 829 829 829 830
786 802 812 804 801 793 783 772 779 777 773 768 761 780 783 783 782 780 785 789 794 797 800 802 805 808 810 810 811 813 814 815 817 819 820 822 823 825 825 825 826 828 829 829 828 828 828 829 828
782 797 802 801 804 796 780 776 774 776 773 764 762 782 790 779 783 786 789 793 796 800 801 803 805 807 810 812 812 814 814 816 816 819 821 822 823 825 825 825 827 827 828 828 827 828 828 828 828
774 808 818 798 792 786 777 781 771 768 772 767 762 763 763 773 782 785 790 794 799 800 802 803 804 805 808 810 812 813 815 816 818 818 821 822 824 825 825 826 827 828 828 828 828 827 828 828 826
787 809 803 782 775 778 778 778 773 775 775 772 766 765 767 774 779 782 785 790 795 797 800 801 802 804 805 808 811 812 814 815 817 818 820 822 824 825 826 827 827 828 828 828 827 827 827 827 825
782 798 783 773 770 769 773 776 772 775 781 768 765 765 769 774 778 780 783 780 780 787 793 796 800 802 804 805 808 811 813 814 815 818 820 822 823 825 826 826 827 827 827 827 826 826 826 826 824
785 776 772 768 765 768 775 767 772 769 759 755 759 759 763 769 773 777 779 781 784 788 791 793 797 800 802 804 806 807 810 812 814 817 819 821 822 823 824 825 826 826 826 826 825 824 824 823 822
782 774 767 764 767 765 763 770 768 766 747 750 758 761 764 765 767 771 776 781 783 785 789 791 795 797 800 804 806 807 809 811 813 816 819 820 820 821 822 824 824 824 823 823 823 822 822 821 820
770 769 768 763 760 761 767 766 766 756 749 751 756 762 766 765 766 771 774 777 780 783 786 790 793 795 798 802 804 807 809 811 813 816 817 818 819 820 821 821 821 821 821 820 819 820 821 819 818
767 774 770 761 757 760 754 771 772 746 748 754 757 760 763 765 765 764 766 773 776 780 784 788 793 794 795 799 804 807 809 811 813 815 816 817 816 818 818 819 820 821 821 819 818 818 818 818 816
778 780 792 768 760 753 757 787 756 747 752 756 757 759 761 762 761 761 762 764 770 777 781 784 789 792 793 799 803 807 809 809 812 813 814 814 815 815 817 817 819 821 820 819 816 816 816 816 816
799 805 793 783 762 760 762 776 752 748 752 758 758 759 760 761 760 758 758 760 765 770 777 781 786 789 793 799 804 808 809 811 811 811 812 813 814 814 816 816 818 819 818 817 816 815 815 814 814
806 798 791 790 771 762 771 771 757 750 753 755 757 759 760 760 761 759 756 758 763 767 772 777 781 785 790 797 803 806 808 808 809 809 810 810 811 812 813 815 816 816 817 815 815 814 813 813 811
786 791 797 782 768 769 772 770 753 747 755 758 755 757 760 762 762 759 757 757 759 763 766 770 778 783 788 793 800 804 805 808 808 807 809 810 810 810 813 815 817 816 813 814 813 812 814 811 809
791 794 792 776 763 774 769 770 752 749 744 744 749 756 760 764 764 760 759 759 761 764 767 771 774 780 785 791 795 799 803 809 807 808 809 809 809 811 813 815 816 815 818 814 813 814 811 812 811
789 793 788 789 766 765 767 773 756 742 740 742 743 744 752 750 754 758 759 759 761 765 769 773 776 779 784 788 791 795 801 806 808 808 811 811 812 813 816 815 816 814 816 816 815 812 811 811 811
795 773 772 775 784 801 764 803 767 745 750 752 750 754 751 751 753 756 759 762 764 768 770 774 777 779 782 786 790 795 794 801 807 809 811 812 814 815 816 816 816 816 817 816 814 813 812 812 812
780 761 772 772 784 783 778 795 773 750 754 758 751 753 751 754 755 754 755 759 764 767 770 773 776 779 781 785 789 793 796 801 806 810 811 814 815 816 817 818 819 818 818 817 816 816 815 816 815
752 762 768 781 790 804 784 788 781 766 746 746 742 741 748 751 755 757 759 761 764 767 768 770 773 778 781 785 787 790 794 801 806 810 811 812 817 818 819 820 820 820 819 819 819 819 817 816 815
758 782 813 808 808 801 767 786 764 737 734 727 735 732 735 743 750 755 757 760 764 766 767 767 770 776 781 783 788 791 795 800 805 808 810 814 817 818 820 821 820 820 820 820 820 819 818 816 814
769 778 808 814 812 784 766 778 748 723 713 716 718 717 726 737 742 748 755 760 762 762 763 765 769 775 780 784 788 794 798 801 804 808 810 814 817 819 820 821 821 821 820 820 820 819 818 817 815
756 777 760 778 776 796 773 753 726 716 718 716 720 720 723 724 731 740 750 757 759 760 761 764 770 775 781 785 787 793 798 802 805 809 811 812 817 819 818 820 820 820 819 820 819 819 818 817 816
744 741 767 789 793 800 776 764 752 728 720 711 709 715 719 725 734 741 745 752 759 762 767 771 773 776 780 786 788 791 798 803 805 808 810 812 815 819 818 819 820 819 818 819 819 819 818 817 816
754 759 754 758 774 770 771 756 733 726 720 715 711 710 710 716 724 732 744 753 759 763 768 772 773 775 783 785 788 793 799 802 803 806 809 809 813 817 818 818 819 820 818 817 817 818 817 816 815
767 789 798 799 784 778 774 758 719 715 711 714 712 714 720 726 735 743 754 763 768 768 771 774 778 775 776 782 784 793 797 805 804 805 805 808 810 814 816 816 816 818 819 816 816 816 815 815 815
Wind_Speed
13 10 2 3 3 5 3 4 3 2 6 3 4 2 2 4 2 4 3 18 28 32 31 26 22 19 17 17 16 17 17 18 18 19 19 19 18 18 18 17 16 16 15 15 15 14 13 13 13
14 2 3 3 4 4 4 3 5 8 8 4 8 3 3 3 3 8 12 17 31 32 30 27 23 19 18 17 16 17 18 18 19 19 18 18 17 17 17 15 15 14 14 14 14 12 12 11 9
9 2 3 4 3 4 5 5 9 6 6 7 9 4 2 4 5 12 7 25 29 30 30 27 24 20 19 17 16 16 17 17 17 17 17 16 16 16 15 14 13 12 12 13 12 11 10 8 7
5 4 4 4 3 4 8 10 11 6 2 2 8 9 3 7 16 14 22 32 27 30 29 27 24 21 19 18 17 15 16 16 16 16 15 14 14 14 13 12 11 10 10 10 9 8 7 6 4
4 3 4 2 3 2 2 16 3 5 4 1 1 3 4 2 10 24 33 33 29 32 29 27 24 21 19 18 16 16 15 15 14 14 14 14 14 13 12 10 9 8 7 7 5 5 3 2 1
4 3 4 3 4 4 2 2 3 4 3 2 6 6 3 11 26 28 34 30 26 30 29 26 23 21 19 18 17 16 15 14 14 13 13 13 12 12 11 9 8 6 5 4 2 1 2 1 2
5 4 1 3 6 5 2 3 3 4 4 3 4 5 3 6 18 34 32 31 30 30 29 27 25 22 20 18 17 16 15 14 13 13 12 12 11 10 9 8 7 5 3 2 2 3 4 4 4
5 4 0 1 3 4 4 3 3 1 2 4 1 6 6 11 24 27 28 28 28 27 28 27 26 24 21 19 17 16 16 15 14 13 12 12 11 10 8 7 6 4 3 3 4 5 5 6 7
3 4 1 3 1 2 1 2 3 0 1 2 2 2 9 31 27 27 26 24 18 19 25 27 27 26 23 21 19 18 17 15 14 13 12 12 11 10 9 7 6 5 4 5 7 8 9 9 11
4 4 8 5 4 1 6 5 3 1 1 2 1 6 29 33 28 24 23 22 22 22 23 27 29 28 26 24 22 21 19 18 17 15 14 13 12 10 9 8 7 7 8 9 10 12 12 13 13
3 5 5 6 4 5 7 3 4 4 4 10 13 13 19 27 24 23 23 34 43 37 30 33 33 30 29 27 25 22 21 20 19 17 15 13 12 12 11 10 9 10 11 13 13 14 15 16 17
2 6 5 4 2 2 3 2 5 8 8 5 4 12 20 21 17 22 23 27 30 31 35 34 34 31 30 27 27 25 24 22 20 19 16 15 14 14 14 13 11 12 15 16 17 17 18 19 19
5 6 5 6 5 7 6 10 8 10 14 2 7 7 16 16 20 25 24 24 28 31 36 35 35 33 30 29 27 25 23 22 19 18 16 16 16 16 15 13 12 13 16 17 18 19 20 20 22
4 4 8 4 9 6 10 7 5 11 0 5 10 7 8 10 16 18 23 25 30 33 36 34 36 34 30 30 28 26 22 19 18 17 16 16 16 16 16 16 14 14 12 13 16 17 19 20 19
3 5 6 3 3 5 5 4 10 6 11 9 5 6 9 10 15 20 28 27 32 33 34 34 35 35 32 31 28 26 22 19 18 16 15 15 17 18 17 17 17 14 11 9 10 10 11 11 11
5 3 3 6 3 4 4 9 10 6 10 10 8 7 6 3 9 24 27 33 37 33 35 34 34 35 32 31 27 24 22 20 17 17 18 19 21 22 19 16 15 12 10 6 3 4 3 2 4
7 3 2 8 5 4 3 7 8 4 9 9 8 8 8 6 4 8 22 28 34 36 34 33 33 31 30 29 27 23 22 20 18 18 18 20 22 23 18 16 13 13 11 10 7 5 4 4 7
3 2 3 4 5 1 5 10 8 4 11 14 11 12 11 9 4 9 17 22 28 29 32 31 32 32 28 26 22 16 12 11 10 10 10 10 9 12 16 7 8 4 4 3 5 5 5 6 10
3 3 5 6 3 3 9 12 17 6 7 10 12 13 11 8 4 11 18 21 25 24 27 31 30 27 23 23 23 20 10 10 9 8 7 7 7 9 4 3 6 6 6 7 8 8 10 11 14
5 4 11 8 5 5 12 12 15 9 16 21 17 15 13 8 8 8 16 22 24 25 24 24 26 26 25 25 24 16 17 15 17 16 15 13 13 10 8 8 8 9 9 10 9 9 9 8 12
6 5 8 9 10 6 6 8 5 3 3 12 14 15 17 22 18 11 13 18 23 23 22 22 22 22 21 20 17 19 26 23 20 18 16 13 11 12 8 8 8 11 12 13 13 12 11 8 8
6 8 12 10 1 6 3 6 6 3 6 8 9 10 16 13 9 9 11 16 24 25 24 22 20 19 17 18 21 23 27 22 17 19 17 15 12 11 12 13 15 15 14 15 16 15 14 11 12
10 5 8 11 6 2 3 3 8 2 3 8 11 10 12 7 8 13 13 19 23 28 28 24 21 19 19 20 23 23 25 25 24 24 23 20 19 18 17 17 16 16 16 16 15 14 13 13 12
5 4 1 3 3 4 8 7 6 5 7 5 8 13 10 10 9 8 13 19 21 25 26 26 25 22 22 23 23 26 29 29 27 24 24 23 20 19 17 16 16 15 15 15 14 12 12 12 12
5 5 4 5 2 7 6 4 8 7 9 10 13 18 17 16 14 12 15 16 20 24 27 28 28 25 24 24 24 26 28 29 27 24 23 20 18 16 15 14 14 14 14 12 13 13 14 14 14
7 9 6 6 4 9 3 7 7 12 11 6 11 15 15 17 17 17 15 18 20 27 29 30 30 29 26 26 26 28 30 28 26 23 21 19 16 14 12 12 12 12 12 12 13 14 14 13 11
4 4 7 4 4 2 5 8 6 6 9 8 10 9 18 21 20 20 17 19 21 25 30 33 34 32 30 31 31 31 31 28 26 23 20 19 14 12 10 10 11 11 11 11 12 13 13 13 11
8 5 6 1 4 8 5 6 6 7 11 9 6 13 13 15 16 17 15 22 21 25 30 32 33 34 33 32 33 33 30 27 26 23 20 17 13 8 7 9 10 10 10 11 12 12 11 10 10
5 3 2 3 5 9 11 8 6 8 9 10 8 10 19 20 21 19 14 21 23 28 31 32 32 35 32 33 32 31 29 27 25 21 18 14 10 5 6 8 9 10 11 11 12 13 9 7 8
5 9 7 3 7 3 2 8 4 4 3 5 7 9 10 12 12 11 11 14 15 21 24 27 28 35 39 34 33 30 28 24 23 21 17 12 9 5 4 6 8 10 11 11 13 9 6 7 10
Wind_Direction
325 321 243 89 63 68 0 328 107 293 327 2 85 147 148 22 155 209 177 165 169 165 167 166 161 153 148 142 135 133 131 132 133 131 128 124 121 119 116 115 113 111 109 105 100 98 100 100 97
321 72 114 104 70 57 295 295 180 219 212 150 84 112 58 46 95 116 124 164 166 163 165 164 161 156 152 146 140 136 135 135 134 132 130 125 123 122 119 116 114 113 111 109 109 110 109 105 98
326 90 87 95 128 148 171 240 252 215 196 155 134 106 104 146 108 156 162 163 160 162 166 165 164 160 157 151 145 142 140 138 136 134 132 130 129 126 124 122 119 115 113 113 112 113 111 109 105
333 16 34 80 179 223 169 195 232 128 307 305 142 119 96 236 152 176 159 161 157 167 169 168 166 164 162 156 150 146 145 144 142 139 137 135 132 130 128 124 122 118 116 116 118 115 113 117 115
36 51 37 46 284 223 204 186 209 322 246 157 174 103 69 18 151 157 161 163 161 168 171 170 170 167 166 161 156 153 152 152 150 146 143 142 139 137 133 131 130 129 128 125 125 124 133 135 129
28 94 45 25 289 300 2 314 15 267 241 72 81 99 54 137 143 150 160 165 165 168 173 171 173 172 172 167 165 163 161 161 160 158 154 151 149 148 148 149 147 144 143 143 149 195 227 225 257
113 77 181 255 298 335 156 121 298 300 322 38 170 77 82 162 153 157 166 169 170 172 175 175 176 178 180 176 173 173 171 170 170 170 166 165 164 163 165 167 167 167 177 192 243 257 270 276 275
107 92 126 263 303 2 13 340 261 212 300 275 164 152 177 186 160 159 166 170 172 176 178 179 179 181 183 185 183 185 184 184 180 181 179 179 178 180 183 188 192 193 208 235 264 278 289 291 293
115 69 180 259 214 236 2 89 239 48 285 360 2 119 160 159 156 152 158 166 172 179 183 185 183 185 186 189 190 193 196 196 195 192 193 193 195 196 201 209 215 225 246 267 279 282 288 295 293
98 123 206 223 161 258 185 165 218 255 112 292 161 83 131 148 156 157 162 168 180 184 191 191 189 191 189 192 196 199 202 205 207 206 203 206 209 214 221 232 238 249 261 274 284 287 288 286 287
133 187 200 260 228 204 200 207 240 112 245 223 186 154 149 160 169 171 178 178 189 190 189 193 194 195 194 195 198 203 208 212 213 217 217 219 222 227 229 235 246 263 271 280 288 292 289 289 290
163 241 226 272 145 102 203 172 239 176 235 55 194 161 155 173 175 180 184 191 187 193 199 197 196 198 200 202 203 205 210 215 219 222 224 228 233 236 238 241 258 276 280 283 289 294 296 295 291
173 251 273 255 281 219 205 209 212 220 236 288 154 176 171 178 186 185 191 195 190 195 203 203 200 200 204 208 211 212 215 220 224 229 232 236 239 242 241 245 265 284 285 279 285 289 293 298 303
199 246 283 285 287 226 165 234 156 251 207 227 165 195 144 177 182 179 186 191 197 201 204 205 205 203 205 212 217 216 219 224 226 230 235 239 243 248 248 247 258 269 278 274 280 289 296 299 300
261 317 339 292 296 264 163 157 215 234 166 210 134 163 145 179 191 192 193 198 198 203 205 206 210 207 206 214 218 219 222 227 228 230 235 239 247 252 256 261 269 281 274 268 280 293 300 301 301
1 50 340 290 5 288 133 258 258 227 158 206 165 149 125 135 190 211 205 199 202 198 204 205 208 211 207 215 218 224 231 232 239 244 246 248 253 255 258 267 280 291 289 302 338 13 14 347 301
4 246 220 308 215 252 176 261 266 148 159 179 163 151 150 135 112 165 196 196 198 201 202 205 206 211 211 217 225 228 241 244 247 255 253 255 260 260 263 266 288 293 287 284 299 346 24 5 339
239 305 295 240 292 48 300 270 271 164 167 168 160 160 163 155 171 147 160 181 191 194 196 203 206 211 213 217 226 222 204 202 214 224 233 243 250 249 243 258 278 272 259 47 19 2 2 24 355
279 256 254 261 220 338 271 266 272 206 162 167 171 167 166 152 181 137 143 154 166 173 183 187 193 202 205 199 199 193 177 132 129 130 145 167 182 193 191 127 103 75 48 41 46 32 20 27 16
243 269 277 290 250 162 271 260 273 179 183 182 177 175 170 159 178 163 148 146 145 144 151 170 187 192 191 198 204 200 151 126 117 112 108 111 107 114 121 95 69 50 32 33 39 32 29 22 23
230 207 268 234 309 213 260 283 286 178 112 192 186 183 175 176 173 170 164 152 150 148 150 153 159 165 174 191 180 146 132 125 116 114 111 104 105 98 89 81 70 69 64 56 47 45 38 24 19
264 209 247 273 330 260 147 267 294 265 139 198 186 187 196 187 175 161 158 151 151 155 158 162 162 161 164 168 164 161 146 132 131 124 116 109 101 91 81 80 73 73 68 57 52 48 42 36 24
235 232 221 248 238 207 277 127 266 299 161 213 204 216 209 204 192 175 163 158 159 156 155 153 154 158 163 167 169 159 137 136 130 124 117 109 102 98 92 84 79 71 62 52 47 42 41 41 35
243 319 83 46 118 235 224 181 260 196 207 183 226 213 187 175 174 165 150 152 155 159 155 151 147 146 154 163 160 152 142 136 130 126 118 114 110 101 90 81 70 62 52 47 45 36 34 25 16
165 74 312 307 296 239 228 179 224 229 225 208 195 207 190 173 171 168 166 159 154 156 152 144 141 137 141 142 146 151 147 141 135 132 127 123 112 99 85 73 61 50 41 37 33 28 26 20 23
189 158 170 244 251 285 314 237 256 222 226 198 202 207 177 173 171 174 169 161 160 154 149 145 140 137 142 141 144 149 145 141 138 136 131 122 112 100 86 68 54 42 34 33 24 19 17 16 23
250 169 207 210 292 323 230 287 285 220 240 228 209 181 188 183 174 167 158 162 160 153 148 146 143 137 142 141 141 147 147 146 141 136 131 124 116 104 84 57 43 35 32 26 19 14 14 10 12
189 183 253 43 217 252 250 253 236 233 245 250 223 191 176 167 163 162 160 162 158 150 148 148 147 148 146 149 146 147 150 150 147 145 137 130 119 105 77 56 40 36 32 20 14 15 13 5 11
329 287 252 239 164 250 267 259 217 232 260 254 233 194 173 170 170 161 157 154 152 155 158 159 157 155 154 154 150 150 152 155 153 150 144 135 127 100 65 50 38 27 21 14 9 4 4 11 9
32 21 47 43 305 261 228 261 252 226 219 187 120 117 117 136 142 135 130 139 158 162 165 166 165 162 165 163 158 159 158 162 159 157 153 150 143 125 87 57 40 22 9 7 359 9 26 14 2